Hourly Data Report for October 14, 2015

All times are specified in Local Standard Time (LST). Add 1 hour to adjust for Daylight Saving Time where and when it is observed.

ARVIAT A
NUNAVUT

61°05'38.000" N
94°04'18.000" W
10.40 m
2300427
71174
YEK

Download Data

Hourly Data (October 2015)
Hourly Data Report for October 14, 2015
Temp Definition
°C
Dew Point Temp Definition
°C
Rel Hum Definition
%
Wind Dir Definition
10's deg

Wind Spd Definition
km/h
Visibility Definition
km
Stn Press Definition
kPa
Hmdx Definition


Wind Chill Definition


Weather Definition


TIME
00:00 Legend Double Dagger -3.1 -4.8 88 6 18 16.1 100.58   -9 Snow
01:00 Legend Double Dagger -3.1 -4.1 93 7 18 8.1 100.54   -9 Snow
02:00 Legend Double Dagger -3.0 -3.7 95 6 22 4.0 100.49   -9 Snow
03:00 Legend Double Dagger -2.8 -3.4 96 7 24 2.8 100.43   -9 Snow
04:00 Legend Double Dagger -2.5 -3.1 96 7 26 3.2 100.40   -9 Snow
05:00 Legend Double Dagger -2.5 -3.3 95 6 30 4.0 100.39   -10 Snow
06:00 Legend Double Dagger -2.0 -2.7 95 8 32 3.2 100.38   -9 Snow
07:00 Legend Double Dagger -1.7 -2.3 96 8 34 3.6 100.37   -9 Snow
08:00 Legend Double Dagger -1.7 -2.0 98 7 41 1.2 100.36   -10 Snow
09:00 Legend Double Dagger -1.9 -2.4 97 7 46 1.2 100.36   -10 Snow
10:00 Legend Double Dagger -2.0 -2.3 98 7 45 0.8 100.36   -10 Moderate Snow
11:00 Legend Double Dagger -2.0 -2.5 96 6 46 1.2 100.39   -11 Snow
12:00 Legend Double Dagger -2.2 -3.0 95 6 45 1.6 100.44   -11 Snow
13:00 Legend Double Dagger -2.3 -2.8 97 4 37 1.6 100.50   -10 Snow
14:00 Legend Double Dagger -2.8 -3.8 93 4 41 1.2 100.56   -11 Snow
15:00 Legend Double Dagger -2.5 -3.5 93 5 45 1.2 100.62   -11 Snow
16:00 Legend Double Dagger -3.9 -4.3 97 2 45 0.6 100.73   -13 Moderate Snow
17:00 Legend Double Dagger -5.0 -5.5 96 1 48 0.6 100.83   -15 Moderate Snow
18:00 Legend Double Dagger -5.6 -6.3 95 1 46 0.8 100.95   -15 Moderate Snow
19:00 Legend Double Dagger -6.2 -7.2 93 1 43 1.6 101.07   -16 Snow
20:00 Legend Double Dagger -6.8 -8.4 89 1 48 3.6 101.17   -17 Snow
21:00 Legend Double Dagger -7.3 -8.7 90 36 37 3.6 101.25   -17 Snow
22:00 Legend Double Dagger -7.7 -9.8 85 36 46 4.0 101.32   -18 Snow
23:00 Legend Double Dagger -8.1 -10.0 86 36 34 11.3 101.38   -18 Snow

Notes on Data Quality.

Legend

  • E = Estimated
  • M = Missing
  • NA = Not Available
  • ‡ = Partner data that is not subject to review by the National Climate Archives
Date modified: